| time (UTC) | temp F | wind direction | speed knots | gust knots | rain 1hr in | rain 24hr in | rain mn in | humidity % | barometer mb |
| 20260906193024 | 78 | 134 | 0.9 | 6.1 | 0.00 | 0.00 | 0.00 | 73 | 1019.0 |
| 20260906191526 | 79 | 186 | 0.0 | 4.3 | 0.00 | 0.00 | 0.00 | 75 | 1018.0 |
| 20260906190032 | 80 | 213 | 0.9 | 4.3 | 0.00 | 0.00 | 0.00 | 72 | 1017.6 |
| 20260906184543 | 80 | 217 | 1.7 | 4.3 | 0.00 | 0.00 | 0.00 | 73 | 1017.1 |
| 20260906183035 | 80 | 198 | 1.7 | 6.1 | 0.00 | 0.00 | 0.00 | 74 | 1017.2 |
| 20260906181549 | 81 | 202 | 1.7 | 4.3 | 0.00 | 0.00 | 0.00 | 75 | 1017.4 |
| 20260906180030 | 81 | 212 | 0.0 | 4.3 | 0.00 | 0.00 | 0.00 | 75 | 1017.3 |
| 20260906174533 | 81 | 260 | 0.9 | 3.5 | 0.00 | 0.00 | 0.00 | 75 | 1017.2 |
| 20260906173031 | 80 | 218 | 2.6 | 4.3 | 0.00 | 0.00 | 0.00 | 76 | 1017.3 |
| 20260906171530 | 80 | 285 | 0.9 | 3.5 | 0.00 | 0.00 | 0.00 | 80 | 1017.7 |
| 20260906170027 | 80 | 150 | 2.6 | 5.2 | 0.00 | 0.00 | 0.00 | 81 | 1017.5 |
| 20260906164534 | 79 | 211 | 1.7 | 4.3 | 0.00 | 0.00 | 0.00 | 85 | 1017.3 |
| 20260906163044 | 79 | 191 | 1.7 | 3.5 | 0.00 | 0.00 | 0.00 | 87 | 1017.2 |
| 20260906161533 | 78 | 193 | 1.7 | 3.5 | 0.00 | 0.00 | 0.00 | 87 | 1017.4 |
| 20260906160028 | 78 | 192 | 2.6 | 4.3 | 0.00 | 0.00 | 0.00 | 87 | 1017.3 |
| 20260906154510 | 78 | 169 | 0.9 | 4.3 | 0.00 | 0.00 | 0.00 | 87 | 1016.9 |
| 20260906153015 | 78 | 193 | 0.9 | 3.5 | 0.00 | 0.00 | 0.00 | 88 | 1016.8 |
| 20260906151521 | 78 | 184 | 0.9 | 2.6 | 0.00 | 0.00 | 0.00 | 88 | 1017.0 |
| 20260906150029 | 78 | 179 | 0.0 | 2.6 | 0.00 | 0.00 | 0.00 | 89 | 1017.0 |
| 20260906144532 | 77 | 177 | 0.0 | 1.7 | 0.00 | 0.00 | 0.00 | 89 | 1017.0 |
| 20260906143010 | 77 | 125 | 0.0 | 0.0 | 0.00 | 0.00 | 0.00 | 89 | 1017.0 |
| 20260906141516 | 77 | 112 | 0.0 | 1.7 | 0.00 | 0.00 | 0.00 | 90 | 1016.7 |
| 20260906140023 | 76 | 77 | 0.0 | 1.7 | 0.00 | 0.00 | 0.00 | 91 | 1016.6 |
| 20260906134527 | 76 | 193 | 0.0 | 1.7 | 0.00 | 0.00 | 0.00 | 91 | 1017.0 |
| 20260906133036 | 76 | 67 | 0.0 | 1.7 | 0.00 | 0.00 | 0.00 | 92 | 1016.9 |
| 20260906131516 | 75 | 41 | 0.0 | 1.7 | 0.00 | 0.00 | 0.00 | 92 | 1017.0 |
| 20260906130027 | 75 | 144 | 0.0 | 0.0 | 0.00 | 0.00 | 0.00 | 93 | 1017.0 |
| 20260906124529 | 75 | 158 | 0.0 | 1.7 | 0.00 | 0.00 | 0.00 | 93 | 1016.8 |
| 20260906123034 | 75 | 104 | 0.0 | 1.7 | 0.00 | 0.00 | 0.00 | 93 | 1016.5 |
| 20260906121512 | 74 | 115 | 0.0 | 1.7 | 0.00 | 0.00 | 0.00 | 93 | 1016.4 |
| 20260906120017 | 74 | 146 | 0.0 | 0.9 | 0.00 | 0.00 | 0.00 | 93 | 1016.2 |
| 20260906114536 | 74 | 69 | 0.0 | 1.7 | 0.00 | 0.00 | 0.00 | 93 | 1016.0 |
| 20260906113030 | 74 | 108 | 0.0 | 1.7 | 0.00 | 0.00 | 0.00 | 93 | 1016.0 |
| 20260906111531 | 74 | 141 | 0.0 | 1.7 | 0.00 | 0.00 | 0.00 | 93 | 1015.9 |
| 20260906110015 | 74 | 98 | 0.0 | 1.7 | 0.00 | 0.00 | 0.00 | 93 | 1015.9 |
| 20260906104524 | 74 | 140 | 0.0 | 0.0 | 0.00 | 0.00 | 0.00 | 93 | 1015.9 |
| 20260906103027 | 74 | 140 | 0.0 | 0.0 | 0.00 | 0.00 | 0.00 | 93 | 1016.0 |
| 20260906101534 | 74 | 54 | 0.0 | 1.7 | 0.00 | 0.00 | 0.00 | 93 | 1016.0 |
| 20260906100032 | 74 | 158 | 0.0 | 1.7 | 0.00 | 0.00 | 0.00 | 93 | 1015.8 |
| 20260906094518 | 74 | 140 | 0.0 | 1.7 | 0.00 | 0.00 | 0.00 | 93 | 1016.0 |
| 20260906093028 | 74 | 193 | 0.0 | 1.7 | 0.00 | 0.00 | 0.00 | 93 | 1016.1 |
| 20260906091535 | 74 | 181 | 0.0 | 1.7 | 0.00 | 0.00 | 0.00 | 93 | 1016.2 |
| 20260906090033 | 74 | 205 | 0.0 | 1.7 | 0.00 | 0.00 | 0.00 | 93 | 1016.2 |
| 20260906084522 | 74 | 150 | 0.0 | 2.6 | 0.00 | 0.00 | 0.00 | 93 | 1016.1 |
| 20260906083026 | 74 | 150 | 0.0 | 1.7 | 0.00 | 0.00 | 0.00 | 93 | 1015.9 |
| 20260906081538 | 74 | 165 | 0.0 | 0.0 | 0.00 | 0.00 | 0.00 | 93 | 1015.8 |
| 20260906080033 | 74 | 108 | 0.0 | 1.7 | 0.00 | 0.00 | 0.00 | 93 | 1015.8 |
| 20260906074534 | 74 | 165 | 0.0 | 1.7 | 0.00 | 0.00 | 0.00 | 92 | 1015.7 |
| 20260906073024 | 73 | 167 | 0.0 | 1.7 | 0.00 | 0.00 | 0.00 | 92 | 1015.7 |
| 20260906071532 | 73 | 91 | 0.0 | 0.0 | 0.00 | 0.00 | 0.00 | 92 | 1015.5 |
| 20260906070033 | 73 | 91 | 0.0 | 1.7 | 0.00 | 0.00 | 0.00 | 92 | 1015.7 |
| 20260906064523 | 73 | 136 | 0.0 | 0.0 | 0.00 | 0.00 | 0.00 | 91 | 1015.7 |
| 20260906063018 | 72 | 70 | 0.0 | 1.7 | 0.00 | 0.00 | 0.00 | 91 | 1015.8 |
| 20260906061527 | 72 | 70 | 0.0 | 1.7 | 0.00 | 0.00 | 0.00 | 91 | 1015.9 |
| 20260906060036 | 71 | 70 | 0.0 | 1.7 | 0.00 | 0.00 | 0.00 | 90 | 1015.9 |
| 20260906054530 | 72 | 186 | 0.0 | 1.7 | 0.00 | 0.00 | 0.00 | 89 | 1015.8 |
| 20260906053017 | 72 | 186 | 0.0 | 1.7 | 0.00 | 0.00 | 0.00 | 89 | 1016.1 |
| 20260906051525 | 72 | 186 | 0.0 | 0.0 | 0.00 | 0.00 | 0.00 | 88 | 1016.3 |
| 20260906050031 | 72 | 186 | 0.0 | 0.0 | 0.00 | 0.00 | 0.00 | 88 | 1016.3 |
| 20260906044531 | 72 | 186 | 0.0 | 0.0 | 0.00 | 0.00 | 0.00 | 87 | 1016.4 |
| 20260906043035 | 72 | 186 | 0.0 | 1.7 | 0.00 | 0.00 | 0.00 | 86 | 1016.3 |
| 20260906041528 | 73 | 167 | 0.0 | 1.7 | 0.00 | 0.00 | 0.00 | 86 | 1016.1 |
| 20260906040035 | 73 | 167 | 0.0 | 0.9 | 0.00 | 0.00 | 0.00 | 85 | 1016.1 |
| 20260906034535 | 73 | 167 | 0.0 | 1.7 | 0.00 | 0.00 | 0.00 | 84 | 1016.1 |
| 20260906033035 | 73 | 166 | 0.0 | 0.0 | 0.00 | 0.00 | 0.00 | 83 | 1015.8 |
| 20260906031532 | 73 | 176 | 0.0 | 0.0 | 0.00 | 0.00 | 0.00 | 82 | 1015.8 |
| 20260906030024 | 74 | 161 | 0.0 | 0.0 | 0.00 | 0.00 | 0.00 | 80 | 1015.9 |
| 20260906024532 | 74 | 161 | 0.0 | 0.0 | 0.00 | 0.00 | 0.00 | 79 | 1015.8 |
| 20260906023033 | 75 | 161 | 0.0 | 1.7 | 0.00 | 0.00 | 0.00 | 77 | 1015.8 |
| 20260906021532 | 75 | 161 | 0.0 | 0.9 | 0.00 | 0.00 | 0.00 | 76 | 1015.7 |
| 20260906020023 | 76 | 161 | 0.0 | 0.0 | 0.00 | 0.00 | 0.00 | 74 | 1015.4 |
| 20260906014529 | 77 | 161 | 0.0 | 0.0 | 0.00 | 0.00 | 0.00 | 72 | 1015.3 |
| 20260906013031 | 78 | 161 | 0.0 | 0.0 | 0.00 | 0.00 | 0.00 | 70 | 1015.2 |
| 20260906011531 | 80 | 161 | 0.0 | 0.0 | 0.00 | 0.00 | 0.00 | 68 | 1015.2 |
| 20260906010035 | 81 | 161 | 0.0 | 0.0 | 0.00 | 0.00 | 0.00 | 66 | 1015.0 |
| 20260906004525 | 82 | 161 | 0.0 | 1.7 | 0.00 | 0.00 | 0.00 | 63 | 1015.2 |
| 20260906003031 | 83 | 183 | 0.0 | 1.7 | 0.00 | 0.00 | 0.00 | 64 | 1015.0 |
| 20260906001541 | 84 | 183 | 0.0 | 1.7 | 0.00 | 0.00 | 0.00 | 61 | 1014.7 |
| 20260906000033 | 85 | 201 | 0.0 | 1.7 | 0.00 | 0.00 | 0.00 | 60 | 1014.7 |
| 20260905234523 | 86 | 167 | 0.9 | 2.6 | 0.00 | 0.00 | 0.00 | 57 | 1014.4 |
| 20260905233028 | 87 | 183 | 0.9 | 1.7 | 0.00 | 0.00 | 0.00 | 57 | 1014.3 |
| 20260905231536 | 87 | 186 | 0.0 | 1.7 | 0.00 | 0.00 | 0.00 | 56 | 1014.1 |
| 20260905230036 | 88 | 183 | 0.9 | 1.7 | 0.00 | 0.00 | 0.00 | 56 | 1014.2 |
| 20260905224535 | 89 | 168 | 0.9 | 3.5 | 0.00 | 0.00 | 0.00 | 51 | 1014.1 |
| 20260905223026 | 89 | 144 | 0.9 | 3.5 | 0.00 | 0.00 | 0.00 | 51 | 1014.2 |
| 20260905221533 | 90 | 313 | 0.0 | 3.5 | 0.00 | 0.00 | 0.00 | 49 | 1014.2 |
| 20260905220013 | 90 | 94 | 0.9 | 3.5 | 0.00 | 0.00 | 0.00 | 47 | 1014.3 |
| 20260905214519 | 91 | 17 | 0.9 | 3.5 | 0.00 | 0.00 | 0.00 | 49 | 1014.3 |
| 20260905213034 | 90 | 108 | 0.9 | 5.2 | 0.00 | 0.00 | 0.00 | 49 | 1014.1 |
| 20260905211527 | 90 | 167 | 0.9 | 3.5 | 0.00 | 0.00 | 0.00 | 46 | 1014.2 |
| 20260905210008 | 90 | 113 | 0.0 | 2.6 | 0.00 | 0.00 | 0.00 | 50 | 1014.1 |
| 20260905204515 | 90 | 151 | 0.9 | 6.1 | 0.00 | 0.00 | 0.00 | 48 | 1014.1 |
| 20260905203027 | 90 | 207 | 1.7 | 5.2 | 0.00 | 0.00 | 0.00 | 48 | 1014.1 |
| 20260905201530 | 89 | 188 | 1.7 | 4.3 | 0.00 | 0.00 | 0.00 | 48 | 1014.1 |
| 20260905200035 | 89 | 146 | 0.9 | 4.3 | 0.00 | 0.00 | 0.00 | 50 | 1014.2 |
| 20260905194516 | 88 | 124 | 0.9 | 4.3 | 0.00 | 0.00 | 0.00 | 51 | 1014.1 |